contact:dominique.lefevre@mio.osupytheas.fr, maurice.libes@osupytheas.fr, didier.mallarino@osupytheas.fr
Project:EMSO http://www.emso-fr.org/EMSO-France
Depth: 2436.0 m
Title:EMSO Ligure Ouest : Data MII capteur AQUADOPP
Date,Latitude,Longitude,X_East,Y_North,Z_Up,Amplitude_X,Amplitude_Y,Amplitude_Z,Batterie,SoundSpeed,Heading,Pitch,Roll,Pressure,TIS,Speed,Direction
, degrees North, degrees East, m.s-1, m.s-1,m.s-1, 1, 1, 1, Volt, m.s-1, degree, degree, degree, dbar, degree_C, m.s-1, degree
2022-01-05T00:04:03,42.805,6.029,-0.054,0.042,-0.013,102.0,102.0,101.0,13.4,1505.2,328.0,-0.8,1.8,2470.732,13.28,0.068,307.9
2022-01-05T00:07:03,42.805,6.029,-0.045,0.01,-0.007,103.0,103.0,101.0,13.4,1505.2,329.6,-0.8,1.8,2470.725,13.28,0.046,282.5
2022-01-05T00:10:03,42.805,6.029,-0.049,0.016,-0.032,102.0,102.0,102.0,13.3,1505.2,330.2,-0.7,1.8,2470.628,13.28,0.051,288.1
2022-01-05T00:13:03,42.805,6.029,-0.038,0.003,-0.015,103.0,102.0,101.0,13.4,1505.2,328.8,-0.8,1.9,2470.668,13.28,0.038,274.5
2022-01-05T00:16:03,42.805,6.029,-0.056,-0.002,-0.032,102.0,103.0,101.0,13.4,1505.2,327.6,-0.8,1.8,2470.647,13.28,0.056,268.0
2022-01-05T00:19:03,42.805,6.029,-0.068,0.032,-0.016,103.0,101.0,101.0,13.4,1505.2,331.0,-0.7,1.8,2470.612,13.28,0.075,295.2
2022-01-05T00:22:03,42.805,6.029,-0.042,0.02,0.003,104.0,101.0,101.0,13.3,1505.2,326.5,-0.7,1.8,2470.598,13.28,0.046,295.5
2022-01-05T00:25:03,42.805,6.029,-0.051,0.005,-0.01,102.0,103.0,101.0,13.4,1505.2,329.8,-0.8,1.8,2470.663,13.28,0.051,275.6
2022-01-05T00:28:03,42.805,6.029,-0.042,0.006,-0.007,101.0,102.0,102.0,13.4,1505.2,324.7,-0.7,1.8,2470.889,13.28,0.042,278.1
2022-01-05T00:31:03,42.805,6.029,-0.066,0.011,0.002,102.0,102.0,101.0,13.4,1505.2,324.1,-0.7,1.8,2471.059,13.28,0.066,279.5
2022-01-05T00:34:03,42.805,6.029,-0.05,0.007,-0.025,103.0,103.0,100.0,13.3,1505.2,324.4,-0.8,1.8,2471.015,13.28,0.05,278.0
2022-01-05T00:37:03,42.805,6.029,-0.048,-0.002,-0.025,104.0,100.0,102.0,13.4,1505.2,324.6,-0.7,1.8,2470.641,13.28,0.048,267.6
2022-01-05T00:40:03,42.805,6.029,-0.067,0.027,-0.004,104.0,101.0,101.0,13.4,1505.2,323.9,-0.7,1.8,2470.635,13.28,0.072,291.9
2022-01-05T00:43:03,42.805,6.029,-0.047,0.022,-0.011,103.0,101.0,102.0,13.4,1505.2,324.7,-0.7,1.8,2470.749,13.28,0.051,295.1
2022-01-05T00:46:03,42.805,6.029,-0.075,0.013,-0.035,103.0,100.0,101.0,13.4,1505.2,325.9,-0.7,1.8,2470.685,13.28,0.076,279.8
2022-01-05T00:49:03,42.805,6.029,-0.061,0.012,-0.006,102.0,102.0,100.0,13.4,1505.2,327.6,-0.7,1.8,2470.549,13.28,0.062,281.1
2022-01-05T00:52:03,42.805,6.029,-0.069,0.003,-0.043,102.0,101.0,101.0,13.3,1505.2,328.7,-0.7,1.8,2470.386,13.28,0.069,272.5
2022-01-05T00:55:03,42.805,6.029,-0.069,0.028,0.016,102.0,102.0,101.0,13.3,1505.2,328.6,-0.7,1.9,2470.244,13.28,0.074,292.1
2022-01-05T00:58:03,42.805,6.029,-0.05,0.013,-0.009,102.0,102.0,101.0,13.4,1505.2,324.8,-0.7,1.8,2470.222,13.28,0.051,284.6
2022-01-05T01:04:03,42.805,6.029,-0.064,0.042,0.019,104.0,104.0,103.0,13.4,1505.2,324.3,-0.7,1.8,2470.23,13.28,0.076,303.3
2022-01-05T01:07:03,42.805,6.029,-0.043,0.029,-0.014,104.0,104.0,101.0,13.4,1505.2,327.8,-0.7,1.8,2470.28,13.28,0.051,304.0
2022-01-05T01:10:03,42.805,6.029,-0.066,0.03,-0.027,102.0,102.0,101.0,13.4,1505.2,326.3,-0.8,1.8,2470.295,13.28,0.072,294.4
2022-01-05T01:13:03,42.805,6.029,-0.037,0.023,0.004,102.0,103.0,100.0,13.4,1505.2,326.9,-0.8,1.8,2470.251,13.28,0.043,301.9
2022-01-05T01:16:03,42.805,6.029,-0.04,0.013,-0.032,101.0,103.0,101.0,13.3,1505.2,326.5,-0.7,1.9,2470.237,13.28,0.042,288.0
2022-01-05T01:19:03,42.805,6.029,-0.051,0.015,-0.034,103.0,103.0,100.0,13.4,1505.2,329.2,-0.8,1.8,2470.254,13.28,0.053,286.4
2022-01-05T01:22:03,42.805,6.029,-0.051,0.009,-0.01,103.0,102.0,100.0,13.4,1505.2,325.0,-0.7,1.8,2470.266,13.28,0.051,280.0
2022-01-05T01:25:03,42.805,6.029,-0.063,0.016,-0.037,103.0,103.0,100.0,13.4,1505.2,328.8,-0.8,1.8,2470.267,13.28,0.064,284.2
2022-01-05T01:28:03,42.805,6.029,-0.04,0.021,0.003,102.0,101.0,101.0,13.4,1505.2,326.6,-0.8,1.8,2470.232,13.28,0.045,297.7
2022-01-05T01:31:03,42.805,6.029,-0.029,0.022,-0.011,101.0,103.0,101.0,13.4,1505.2,326.8,-0.7,1.8,2470.31,13.28,0.036,307.2
2022-01-05T01:34:03,42.805,6.029,-0.063,0.016,-0.014,103.0,103.0,99.0,13.3,1505.2,327.1,-0.7,1.8,2470.293,13.28,0.064,284.2
2022-01-05T01:37:03,42.805,6.029,-0.047,0.034,-0.007,102.0,102.0,101.0,13.4,1505.2,330.0,-0.8,1.8,2470.384,13.28,0.058,305.9
2022-01-05T01:40:03,42.805,6.029,-0.067,0.029,-0.037,101.0,102.0,101.0,13.4,1505.2,329.2,-0.8,1.8,2470.327,13.28,0.073,293.4
2022-01-05T01:43:03,42.805,6.029,-0.04,-0.008,-0.045,102.0,100.0,101.0,13.4,1505.2,325.9,-0.8,1.8,2470.314,13.28,0.04,258.7
2022-01-05T01:46:03,42.805,6.029,-0.04,0.012,-0.041,101.0,103.0,99.0,13.4,1505.2,326.8,-0.8,1.8,2470.334,13.28,0.041,286.7
2022-01-05T01:49:03,42.805,6.029,-0.044,0.013,-0.013,102.0,103.0,100.0,13.3,1505.2,328.9,-0.7,1.8,2470.639,13.28,0.045,286.5
2022-01-05T01:52:03,42.805,6.029,-0.045,0.018,-0.011,102.0,102.0,100.0,13.3,1505.2,330.2,-0.7,1.8,2470.201,13.28,0.048,291.8
2022-01-05T01:55:03,42.805,6.029,-0.056,0.018,-0.01,102.0,102.0,100.0,13.4,1505.2,324.8,-0.8,1.8,2470.254,13.28,0.058,287.8
2022-01-05T01:58:03,42.805,6.029,-0.052,0.015,-0.018,102.0,101.0,101.0,13.3,1505.2,325.6,-0.8,1.8,2470.236,13.28,0.054,286.1
2022-01-05T02:04:03,42.805,6.029,-0.041,0.026,-0.035,102.0,102.0,101.0,13.4,1505.2,329.0,-0.7,1.8,2470.292,13.28,0.048,302.4
2022-01-05T02:07:03,42.805,6.029,-0.043,-0.002,-0.013,102.0,101.0,101.0,13.4,1505.2,328.7,-0.7,1.8,2470.321,13.28,0.043,267.3
2022-01-05T02:10:03,42.805,6.029,-0.048,0.018,-0.006,102.0,102.0,100.0,13.4,1505.2,328.7,-0.7,1.8,2470.356,13.28,0.051,290.6
2022-01-05T02:13:03,42.805,6.029,-0.049,0.022,-0.015,103.0,102.0,99.0,13.4,1505.2,328.5,-0.8,1.8,2470.344,13.28,0.053,294.2
2022-01-05T02:16:03,42.805,6.029,-0.022,0.012,-0.032,101.0,101.0,100.0,13.4,1505.2,325.4,-0.7,1.8,2470.354,13.28,0.025,298.6
2022-01-05T02:19:03,42.805,6.029,-0.03,0.044,0.006,102.0,102.0,100.0,13.4,1505.2,329.8,-0.8,1.8,2470.399,13.28,0.053,325.7
2022-01-05T02:22:03,42.805,6.029,-0.039,0.0,-0.036,101.0,100.0,101.0,13.4,1505.2,325.8,-0.7,1.8,2470.397,13.28,0.039,270.0
2022-01-05T02:25:03,42.805,6.029,-0.069,0.028,-0.03,101.0,101.0,101.0,13.4,1505.2,330.7,-0.8,1.8,2470.426,13.28,0.074,292.1
2022-01-05T02:28:03,42.805,6.029,-0.051,0.002,-0.024,101.0,102.0,99.0,13.3,1505.2,324.3,-0.7,1.8,2470.422,13.28,0.051,272.2
2022-01-05T02:31:03,42.805,6.029,-0.049,0.028,0.0,101.0,101.0,100.0,13.4,1505.2,326.5,-0.7,1.8,2470.439,13.28,0.056,299.7
2022-01-05T02:34:03,42.805,6.029,-0.041,-0.001,-0.014,102.0,101.0,100.0,13.3,1505.2,328.5,-0.7,1.8,2470.43,13.28,0.041,268.6
2022-01-05T02:37:03,42.805,6.029,-0.044,0.021,-0.002,99.0,102.0,100.0,13.4,1505.2,327.2,-0.8,1.8,2470.467,13.28,0.048,295.5
2022-01-05T02:40:03,42.805,6.029,-0.037,0.01,0.0,103.0,99.0,100.0,13.4,1505.2,327.2,-0.7,1.8,2470.443,13.28,0.038,285.1
2022-01-05T02:43:03,42.805,6.029,-0.041,0.006,-0.015,100.0,101.0,100.0,13.4,1505.2,327.6,-0.7,1.8,2470.524,13.28,0.041,278.3
2022-01-05T02:46:03,42.805,6.029,-0.032,0.017,0.008,101.0,100.0,101.0,13.4,1505.2,326.4,-0.8,1.8,2470.4,13.28,0.036,298.0
2022-01-05T02:49:03,42.805,6.029,-0.048,0.021,-0.021,102.0,101.0,100.0,13.4,1505.2,330.3,-0.8,1.8,2470.464,13.28,0.052,293.6
2022-01-05T02:52:03,42.805,6.029,-0.013,-0.002,0.0,99.0,101.0,101.0,13.3,1505.2,328.6,-0.7,1.8,2470.5,13.28,0.013,261.3
2022-01-05T02:55:03,42.805,6.029,-0.046,0.021,0.037,102.0,100.0,101.0,13.4,1505.2,331.1,-0.8,1.8,2470.499,13.29,0.05,294.5
2022-01-05T02:58:03,42.805,6.029,-0.045,0.022,-0.016,102.0,102.0,99.0,13.3,1505.2,331.6,-0.7,1.8,2470.51,13.29,0.05,296.1
2022-01-05T03:04:03,42.805,6.029,-0.027,0.023,0.001,102.0,102.0,101.0,13.3,1505.2,329.2,-0.7,1.8,2470.588,13.28,0.035,310.4
2022-01-05T03:07:03,42.805,6.029,-0.049,0.021,-0.02,101.0,102.0,101.0,13.3,1505.2,327.1,-0.8,1.8,2470.506,13.28,0.053,293.2
2022-01-05T03:10:03,42.805,6.029,-0.03,0.026,0.019,103.0,101.0,101.0,13.4,1505.2,326.2,-0.8,1.8,2470.512,13.28,0.039,310.9
2022-01-05T03:13:03,42.805,6.029,-0.047,0.025,-0.001,102.0,103.0,100.0,13.4,1505.2,328.6,-0.8,1.8,2470.542,13.28,0.053,298.0
2022-01-05T03:16:03,42.805,6.029,-0.045,0.008,-0.007,102.0,102.0,98.0,13.3,1505.2,330.2,-0.7,1.9,2470.563,13.28,0.045,280.1
2022-01-05T03:19:03,42.805,6.029,-0.041,0.019,-0.025,102.0,102.0,101.0,13.4,1505.2,325.3,-0.8,1.8,2470.533,13.28,0.045,294.9
2022-01-05T03:22:03,42.805,6.029,-0.044,0.032,0.015,102.0,102.0,101.0,13.4,1505.2,325.6,-0.8,1.8,2470.522,13.28,0.054,306.0
2022-01-05T03:25:03,42.805,6.029,-0.054,0.024,0.016,100.0,102.0,101.0,13.4,1505.2,327.8,-0.7,1.8,2470.53,13.28,0.059,294.0
2022-01-05T03:28:03,42.805,6.029,-0.049,0.02,0.005,102.0,100.0,100.0,13.4,1505.2,328.7,-0.7,1.9,2470.485,13.28,0.052,292.2
2022-01-05T03:31:03,42.805,6.029,-0.058,0.034,-0.006,101.0,100.0,101.0,13.4,1505.2,326.4,-0.8,1.9,2470.5,13.28,0.067,300.4
2022-01-05T03:34:03,42.805,6.029,-0.036,0.017,-0.009,101.0,101.0,100.0,13.4,1505.2,326.7,-0.8,1.8,2470.504,13.28,0.039,295.3
2022-01-05T03:37:03,42.805,6.029,-0.039,0.03,-0.008,102.0,101.0,100.0,13.4,1505.2,329.3,-0.7,1.8,2470.512,13.28,0.049,307.6
2022-01-05T03:40:03,42.805,6.029,-0.029,0.018,-0.018,101.0,102.0,99.0,13.4,1505.2,329.2,-0.8,1.8,2470.543,13.28,0.034,301.8
2022-01-05T03:43:03,42.805,6.029,-0.048,0.035,0.011,102.0,101.0,100.0,13.4,1505.2,326.1,-0.8,1.8,2470.506,13.28,0.059,306.1
2022-01-05T03:46:03,42.805,6.029,0.0,0.007,-0.01,102.0,100.0,100.0,13.3,1505.2,332.2,-0.8,1.8,2470.52,13.28,0.007,0.0
2022-01-05T03:49:03,42.805,6.029,-0.059,0.0,-0.033,100.0,101.0,100.0,13.4,1505.2,328.1,-0.8,1.8,2470.555,13.28,0.058,270.0
2022-01-05T03:52:03,42.805,6.029,-0.047,0.006,-0.01,102.0,101.0,100.0,13.3,1505.2,328.4,-0.7,1.8,2470.532,13.28,0.047,277.3
2022-01-05T03:55:03,42.805,6.029,-0.025,-0.007,-0.014,101.0,102.0,100.0,13.4,1505.2,330.6,-0.7,1.8,2470.539,13.28,0.025,254.4
2022-01-05T03:58:03,42.805,6.029,-0.055,0.015,0.007,103.0,99.0,100.0,13.4,1505.2,326.1,-0.8,1.8,2470.507,13.28,0.057,285.3
2022-01-05T04:04:03,42.805,6.029,-0.04,0.003,-0.007,101.0,101.0,100.0,13.3,1505.2,329.8,-0.8,1.8,2470.587,13.28,0.04,274.3
2022-01-05T04:07:03,42.805,6.029,-0.041,0.021,-0.004,101.0,101.0,100.0,13.4,1505.2,328.2,-0.8,1.8,2470.596,13.28,0.046,297.1
2022-01-05T04:10:03,42.805,6.029,-0.055,0.017,0.002,100.0,101.0,100.0,13.4,1505.2,327.1,-0.7,1.8,2470.588,13.28,0.057,287.2
2022-01-05T04:13:03,42.805,6.029,-0.057,0.015,0.008,100.0,100.0,101.0,13.3,1505.2,329.4,-0.7,1.8,2470.573,13.28,0.058,284.7
2022-01-05T04:16:03,42.805,6.029,-0.018,0.008,0.024,103.0,99.0,100.0,13.4,1505.2,329.7,-0.8,1.8,2470.545,13.28,0.019,294.0
2022-01-05T04:19:03,42.805,6.029,-0.023,0.017,0.0,101.0,101.0,100.0,13.4,1505.2,329.3,-0.7,1.8,2470.555,13.28,0.028,306.5
2022-01-05T04:22:03,42.805,6.029,-0.058,0.001,-0.024,102.0,100.0,102.0,13.4,1505.2,325.0,-0.8,1.8,2470.613,13.28,0.058,271.0
2022-01-05T04:25:03,42.805,6.029,-0.029,-0.003,-0.02,100.0,100.0,102.0,13.4,1505.2,324.3,-0.7,1.8,2470.591,13.28,0.029,264.1
2022-01-05T04:28:03,42.805,6.029,-0.044,0.025,-0.024,102.0,102.0,100.0,13.4,1505.2,331.3,-0.7,1.8,2470.598,13.28,0.05,299.6
2022-01-05T04:31:03,42.805,6.029,-0.03,-0.001,-0.007,100.0,100.0,102.0,13.3,1505.2,325.2,-0.8,1.8,2470.635,13.28,0.03,268.1
2022-01-05T04:34:03,42.805,6.029,-0.055,0.003,-0.018,102.0,102.0,100.0,13.4,1505.2,327.3,-0.8,1.8,2470.601,13.28,0.055,273.1
2022-01-05T04:37:03,42.805,6.029,-0.023,0.006,-0.022,101.0,101.0,100.0,13.4,1505.2,328.8,-0.7,1.8,2470.602,13.28,0.023,284.6
2022-01-05T04:40:03,42.805,6.029,-0.041,0.02,-0.022,102.0,101.0,101.0,13.4,1505.2,324.8,-0.8,1.8,2470.669,13.28,0.045,296.0
2022-01-05T04:43:03,42.805,6.029,-0.056,0.033,0.0,103.0,101.0,100.0,13.4,1505.2,328.6,-0.8,1.8,2470.605,13.29,0.064,300.5
2022-01-05T04:46:03,42.805,6.029,-0.043,0.011,-0.026,102.0,102.0,101.0,13.4,1505.2,328.9,-0.8,1.8,2470.632,13.29,0.044,284.3
2022-01-05T04:49:03,42.805,6.029,-0.049,0.019,0.002,103.0,102.0,101.0,13.4,1505.2,327.3,-0.8,1.8,2470.62,13.29,0.052,291.2
2022-01-05T04:52:03,42.805,6.029,-0.03,-0.001,-0.011,102.0,101.0,102.0,13.4,1505.2,328.5,-0.8,1.8,2470.613,13.29,0.03,268.1
2022-01-05T04:55:03,42.805,6.029,-0.038,0.012,-0.026,102.0,102.0,100.0,13.3,1505.2,326.7,-0.8,1.8,2470.618,13.29,0.039,287.5
2022-01-05T04:58:03,42.805,6.029,-0.045,0.02,-0.022,101.0,102.0,101.0,13.4,1505.2,329.1,-0.8,1.8,2470.637,13.29,0.049,294.0
2022-01-05T05:04:03,42.805,6.029,-0.029,0.02,-0.015,102.0,101.0,100.0,13.4,1505.2,331.1,-0.8,1.8,2470.677,13.28,0.035,304.6
2022-01-05T05:07:03,42.805,6.029,-0.03,0.013,0.023,102.0,102.0,101.0,13.4,1505.2,331.8,-0.8,1.8,2470.677,13.28,0.032,293.4
2022-01-05T05:10:03,42.805,6.029,-0.035,0.021,-0.017,102.0,102.0,100.0,13.4,1505.2,331.1,-0.8,1.8,2470.618,13.28,0.04,301.0
2022-01-05T05:13:03,42.805,6.029,-0.027,0.035,0.023,102.0,102.0,101.0,13.4,1505.2,329.6,-0.7,1.8,2470.684,13.28,0.044,322.3
2022-01-05T05:16:03,42.805,6.029,-0.023,0.021,0.003,102.0,102.0,101.0,13.3,1505.2,331.1,-0.7,1.8,2470.673,13.28,0.031,312.4
2022-01-05T05:19:03,42.805,6.029,-0.03,0.023,-0.001,102.0,102.0,101.0,13.4,1505.2,329.8,-0.8,1.8,2470.684,13.29,0.037,307.5
2022-01-05T05:22:03,42.805,6.029,-0.031,0.01,-0.009,102.0,103.0,99.0,13.4,1505.2,326.9,-0.7,1.8,2470.691,13.29,0.032,287.9
2022-01-05T05:25:03,42.805,6.029,-0.05,0.02,0.021,102.0,102.0,101.0,13.4,1505.2,328.8,-0.7,1.8,2470.693,13.29,0.053,291.8
2022-01-05T05:28:03,42.805,6.029,-0.01,0.024,0.001,102.0,101.0,101.0,13.4,1505.2,328.1,-0.8,1.8,2470.68,13.29,0.026,337.4
2022-01-05T05:31:03,42.805,6.029,-0.029,0.001,-0.006,102.0,104.0,100.0,13.3,1505.2,329.7,-0.7,1.8,2470.693,13.29,0.029,272.0
2022-01-05T05:34:03,42.805,6.029,-0.031,0.021,-0.026,102.0,101.0,101.0,13.4,1505.2,329.2,-0.8,1.9,2470.702,13.29,0.037,304.1
2022-01-05T05:37:03,42.805,6.029,-0.021,0.01,-0.01,103.0,102.0,101.0,13.3,1505.2,330.1,-0.7,1.8,2470.688,13.29,0.023,295.5
2022-01-05T05:40:03,42.805,6.029,-0.027,0.015,0.0,103.0,101.0,101.0,13.4,1505.2,330.8,-0.8,1.8,2470.702,13.29,0.03,299.1
2022-01-05T05:43:03,42.805,6.029,-0.017,0.006,0.004,102.0,103.0,101.0,13.3,1505.2,331.7,-0.7,1.8,2470.711,13.29,0.018,289.4
2022-01-05T05:46:03,42.805,6.029,-0.024,0.017,-0.01,102.0,102.0,102.0,13.4,1505.2,331.2,-0.7,1.8,2470.714,13.29,0.029,305.3
2022-01-05T05:49:03,42.805,6.029,-0.037,0.01,-0.031,103.0,102.0,100.0,13.4,1505.2,331.4,-0.7,1.8,2470.715,13.29,0.038,285.1
2022-01-05T05:52:03,42.805,6.029,-0.013,0.012,0.009,104.0,103.0,100.0,13.3,1505.2,330.9,-0.7,1.8,2470.698,13.29,0.017,312.7
2022-01-05T05:55:03,42.805,6.029,-0.043,0.023,0.016,102.0,102.0,101.0,13.4,1505.2,325.8,-0.8,1.8,2470.761,13.29,0.048,298.1
2022-01-05T05:58:03,42.805,6.029,-0.022,0.011,-0.011,103.0,102.0,102.0,13.4,1505.2,331.1,-0.8,1.8,2470.734,13.29,0.024,296.6
2022-01-05T06:04:03,42.805,6.029,-0.024,0.017,0.044,102.0,103.0,101.0,13.3,1505.2,327.6,-0.8,1.8,2470.794,13.28,0.029,305.3
2022-01-05T06:07:03,42.805,6.029,-0.035,0.006,-0.03,102.0,102.0,102.0,13.3,1505.2,330.0,-0.8,1.8,2470.752,13.28,0.035,279.7
2022-01-05T06:10:03,42.805,6.029,-0.022,0.031,-0.001,102.0,103.0,102.0,13.4,1505.2,325.9,-0.8,1.8,2470.768,13.28,0.038,324.6
2022-01-05T06:13:03,42.805,6.029,-0.018,0.01,0.001,103.0,104.0,100.0,13.4,1505.2,326.0,-0.7,1.8,2470.819,13.28,0.02,299.1
2022-01-05T06:16:03,42.805,6.029,-0.004,-0.01,-0.022,104.0,102.0,101.0,13.4,1505.2,326.6,-0.8,1.9,2470.775,13.29,0.01,201.8
2022-01-05T06:19:03,42.805,6.029,-0.002,0.015,0.015,102.0,102.0,101.0,13.3,1505.2,326.4,-0.7,1.8,2470.771,13.29,0.015,352.4
2022-01-05T06:22:03,42.805,6.029,-0.038,0.007,-0.024,102.0,101.0,102.0,13.3,1505.2,328.5,-0.7,1.8,2470.754,13.29,0.038,280.4
2022-01-05T06:25:03,42.805,6.029,-0.037,0.024,0.015,103.0,102.0,101.0,13.4,1505.2,330.2,-0.7,1.8,2470.735,13.29,0.044,303.0
2022-01-05T06:28:03,42.805,6.029,-0.028,0.028,0.007,102.0,102.0,101.0,13.4,1505.2,331.2,-0.8,1.8,2470.782,13.29,0.039,315.0
2022-01-05T06:31:03,42.805,6.029,-0.013,0.021,0.016,103.0,102.0,101.0,13.3,1505.2,324.4,-0.8,1.8,2470.788,13.29,0.024,328.2
2022-01-05T06:34:03,42.805,6.029,-0.013,0.011,0.001,102.0,103.0,101.0,13.4,1505.2,324.6,-0.8,1.9,2470.806,13.29,0.017,310.2
2022-01-05T06:37:03,42.805,6.029,-0.022,0.001,-0.028,101.0,103.0,101.0,13.4,1505.2,328.5,-0.8,1.8,2470.831,13.29,0.022,272.6
2022-01-05T06:40:03,42.805,6.029,-0.039,0.023,0.003,102.0,102.0,101.0,13.3,1505.2,327.4,-0.8,1.8,2470.805,13.29,0.045,300.5
2022-01-05T06:43:03,42.805,6.029,-0.002,0.014,-0.005,104.0,102.0,101.0,13.3,1505.2,328.4,-0.7,1.8,2470.766,13.29,0.014,351.9
2022-01-05T06:46:03,42.805,6.029,-0.017,0.012,-0.015,103.0,101.0,101.0,13.4,1505.2,325.0,-0.8,1.8,2470.761,13.29,0.02,305.2
2022-01-05T06:49:03,42.805,6.029,-0.039,0.024,-0.005,102.0,102.0,102.0,13.4,1505.2,327.2,-0.7,1.8,2470.778,13.29,0.045,301.6
2022-01-05T06:52:03,42.805,6.029,-0.056,0.007,-0.007,104.0,104.0,100.0,13.3,1505.2,326.2,-0.8,1.8,2470.824,13.29,0.056,277.1
2022-01-05T06:55:03,42.805,6.029,-0.022,0.01,0.013,104.0,102.0,102.0,13.4,1505.2,325.9,-0.8,1.8,2470.79,13.29,0.024,294.4
2022-01-05T06:58:03,42.805,6.029,-0.021,0.001,-0.033,104.0,102.0,102.0,13.4,1505.2,328.2,-0.8,1.8,2470.821,13.29,0.021,272.7
2022-01-05T07:04:03,42.805,6.029,-0.029,-0.003,-0.049,103.0,102.0,100.0,13.4,1505.2,327.0,-0.8,1.8,2470.879,13.28,0.029,264.1
2022-01-05T07:07:03,42.805,6.029,-0.023,0.011,0.021,103.0,102.0,102.0,13.3,1505.2,326.8,-0.8,1.8,2470.772,13.28,0.025,295.6
2022-01-05T07:10:03,42.805,6.029,-0.015,-0.009,-0.017,102.0,102.0,101.0,13.3,1505.2,331.0,-0.8,1.8,2470.853,13.29,0.017,239.0
2022-01-05T07:13:03,42.805,6.029,-0.039,0.029,-0.006,103.0,102.0,101.0,13.3,1505.2,330.7,-0.8,1.9,2470.87,13.29,0.048,306.6
2022-01-05T07:16:03,42.805,6.029,0.001,0.03,0.033,101.0,103.0,101.0,13.4,1505.2,329.5,-0.8,1.8,2470.861,13.29,0.03,1.9
2022-01-05T07:19:03,42.805,6.029,-0.025,0.015,-0.014,103.0,102.0,101.0,13.4,1505.2,327.2,-0.7,1.8,2470.827,13.29,0.029,301.0
2022-01-05T07:22:03,42.805,6.029,-0.032,-0.002,-0.041,103.0,102.0,101.0,13.4,1505.2,324.2,-0.7,1.8,2470.81,13.29,0.032,266.4
2022-01-05T07:25:03,42.805,6.029,-0.018,0.017,0.011,103.0,102.0,102.0,13.4,1505.2,328.7,-0.8,1.8,2470.852,13.29,0.024,313.4
2022-01-05T07:28:03,42.805,6.029,-0.036,0.012,-0.004,102.0,101.0,101.0,13.4,1505.2,327.6,-0.7,1.8,2470.82,13.29,0.037,288.4
2022-01-05T07:31:03,42.805,6.029,-0.024,0.009,0.001,102.0,102.0,101.0,13.4,1505.2,328.5,-0.8,1.8,2470.851,13.29,0.025,290.6
2022-01-05T07:34:03,42.805,6.029,-0.013,0.005,0.018,103.0,102.0,101.0,13.3,1505.2,330.2,-0.8,1.8,2470.834,13.29,0.013,291.0
2022-01-05T07:37:03,42.805,6.029,-0.025,0.01,0.009,101.0,102.0,101.0,13.4,1505.2,329.8,-0.8,1.8,2470.846,13.29,0.026,291.8
2022-01-05T07:40:03,42.805,6.029,-0.014,0.019,-0.019,103.0,102.0,100.0,13.4,1505.2,328.9,-0.8,1.8,2470.869,13.29,0.023,323.6
2022-01-05T07:43:03,42.805,6.029,-0.016,0.006,-0.025,102.0,102.0,101.0,13.3,1505.2,327.5,-0.8,1.8,2470.871,13.29,0.017,290.6
2022-01-05T07:46:03,42.805,6.029,-0.02,0.004,-0.015,102.0,102.0,101.0,13.4,1505.2,330.8,-0.7,1.9,2470.826,13.29,0.02,281.3
2022-01-05T07:49:03,42.805,6.029,-0.026,0.011,-0.011,101.0,104.0,102.0,13.4,1505.2,330.9,-0.7,1.8,2470.795,13.29,0.028,292.9
2022-01-05T07:52:03,42.805,6.029,-0.021,0.007,-0.001,103.0,102.0,101.0,13.4,1505.2,330.5,-0.8,1.8,2470.819,13.29,0.022,288.4
2022-01-05T07:55:03,42.805,6.029,-0.009,0.013,0.009,102.0,103.0,102.0,13.4,1505.2,331.0,-0.8,1.8,2470.809,13.29,0.015,325.3
2022-01-05T07:58:03,42.805,6.029,-0.019,-0.004,-0.002,102.0,104.0,101.0,13.4,1505.2,327.9,-0.8,1.8,2470.817,13.29,0.019,258.1
2022-01-05T08:04:03,42.805,6.029,-0.025,0.003,-0.035,102.0,104.0,100.0,13.4,1505.2,329.5,-0.7,1.8,2470.86,13.28,0.025,276.8
2022-01-05T08:07:03,42.805,6.029,-0.006,-0.005,-0.006,101.0,104.0,101.0,13.4,1505.2,324.5,-0.8,1.8,2470.847,13.28,0.007,230.2
2022-01-05T08:10:03,42.805,6.029,-0.01,0.001,-0.015,104.0,101.0,101.0,13.4,1505.2,328.4,-0.8,1.8,2470.843,13.28,0.01,275.7
2022-01-05T08:13:03,42.805,6.029,-0.028,-0.003,0.003,102.0,104.0,101.0,13.4,1505.2,329.1,-0.7,1.8,2470.847,13.29,0.028,263.9
2022-01-05T08:16:03,42.805,6.029,-0.006,-0.021,-0.015,102.0,103.0,102.0,13.4,1505.2,329.9,-0.7,1.8,2470.83,13.29,0.021,195.9
2022-01-05T08:19:03,42.805,6.029,-0.025,0.009,-0.017,103.0,102.0,101.0,13.3,1505.2,328.9,-0.7,1.8,2470.825,13.29,0.026,289.8
2022-01-05T08:22:03,42.805,6.029,-0.028,0.01,-0.015,102.0,102.0,101.0,13.3,1505.2,325.7,-0.8,1.8,2470.844,13.29,0.029,289.6
2022-01-05T08:25:03,42.805,6.029,-0.01,-0.011,-0.014,103.0,103.0,100.0,13.3,1505.2,324.7,-0.7,1.8,2470.813,13.29,0.014,222.3
2022-01-05T08:28:03,42.805,6.029,-0.032,0.015,-0.003,103.0,102.0,101.0,13.3,1505.2,327.7,-0.8,1.8,2470.853,13.29,0.035,295.1
2022-01-05T08:31:03,42.805,6.029,-0.021,-0.004,-0.024,102.0,103.0,101.0,13.4,1505.2,329.8,-0.8,1.9,2470.861,13.29,0.021,259.2
2022-01-05T08:34:03,42.805,6.029,-0.025,0.008,-0.001,102.0,102.0,101.0,13.3,1505.2,331.1,-0.8,1.8,2470.836,13.29,0.026,287.7
2022-01-05T08:37:03,42.805,6.029,-0.026,0.003,-0.013,102.0,104.0,101.0,13.4,1505.2,324.9,-0.8,1.8,2470.828,13.29,0.026,276.6
2022-01-05T08:40:03,42.805,6.029,-0.025,0.016,0.008,100.0,103.0,102.0,13.4,1505.2,328.0,-0.8,1.8,2470.882,13.29,0.029,302.6
2022-01-05T08:43:03,42.805,6.029,-0.003,0.004,-0.018,103.0,102.0,101.0,13.4,1505.2,328.5,-0.7,1.8,2470.858,13.29,0.005,323.1
2022-01-05T08:46:03,42.805,6.029,-0.042,0.011,-0.008,102.0,103.0,100.0,13.4,1505.2,328.1,-0.8,1.8,2470.845,13.29,0.043,284.7
2022-01-05T08:49:03,42.805,6.029,-0.031,0.008,0.001,104.0,103.0,100.0,13.4,1505.2,326.8,-0.8,1.8,2470.888,13.29,0.032,284.5
2022-01-05T08:52:03,42.805,6.029,-0.008,-0.017,-0.002,103.0,103.0,101.0,13.3,1505.2,328.3,-0.8,1.8,2470.909,13.29,0.018,205.2
2022-01-05T08:55:03,42.805,6.029,-0.015,0.021,-0.047,103.0,102.0,101.0,13.4,1505.2,329.0,-0.8,1.8,2470.9,13.29,0.025,324.5
2022-01-05T08:58:03,42.805,6.029,-0.02,0.005,0.001,102.0,103.0,101.0,13.4,1505.2,325.0,-0.8,1.9,2470.856,13.29,0.02,284.0
2022-01-05T09:04:03,42.805,6.029,-0.034,0.009,-0.032,104.0,103.0,101.0,13.4,1505.2,326.6,-0.8,1.8,2470.908,13.28,0.035,284.8
2022-01-05T09:07:03,42.805,6.029,-0.022,0.014,-0.015,104.0,101.0,101.0,13.4,1505.2,326.7,-0.7,1.8,2470.882,13.28,0.026,302.5
2022-01-05T09:10:03,42.805,6.029,-0.045,-0.002,-0.009,103.0,102.0,102.0,13.4,1505.2,327.1,-0.8,1.8,2470.874,13.29,0.045,267.5
2022-01-05T09:13:03,42.805,6.029,-0.032,-0.002,-0.038,103.0,102.0,101.0,13.3,1505.2,329.1,-0.7,1.8,2470.909,13.29,0.032,266.4
2022-01-05T09:16:03,42.805,6.029,-0.032,-0.001,-0.024,102.0,104.0,99.0,13.4,1505.2,327.3,-0.7,1.8,2470.95,13.29,0.032,268.2
2022-01-05T09:19:03,42.805,6.029,-0.016,-0.013,-0.015,102.0,103.0,101.0,13.4,1505.2,325.3,-0.8,1.8,2470.923,13.29,0.02,230.9
2022-01-05T09:22:03,42.805,6.029,-0.03,0.023,-0.005,103.0,103.0,101.0,13.4,1505.2,327.6,-0.8,1.8,2470.909,13.29,0.037,307.5
2022-01-05T09:25:03,42.805,6.029,-0.026,0.019,-0.006,103.0,102.0,100.0,13.4,1505.2,329.2,-0.8,1.8,2470.92,13.29,0.032,306.2
2022-01-05T09:28:03,42.805,6.029,-0.015,-0.004,-0.005,104.0,102.0,101.0,13.4,1505.2,324.7,-0.8,1.8,2470.928,13.29,0.015,255.1
2022-01-05T09:31:03,42.805,6.029,-0.044,-0.002,-0.002,103.0,103.0,101.0,13.4,1505.2,328.7,-0.8,1.8,2470.914,13.29,0.044,267.4
2022-01-05T09:34:03,42.805,6.029,-0.037,-0.001,-0.034,103.0,102.0,102.0,13.4,1505.2,328.2,-0.7,1.8,2470.911,13.29,0.037,268.5
2022-01-05T09:37:03,42.805,6.029,-0.002,-0.006,-0.007,103.0,102.0,101.0,13.4,1505.2,329.5,-0.7,1.8,2470.896,13.29,0.006,198.4
2022-01-05T09:40:03,42.805,6.029,-0.031,0.009,-0.006,102.0,103.0,101.0,13.4,1505.2,329.9,-0.7,1.8,2470.912,13.29,0.032,286.2
2022-01-05T09:43:03,42.805,6.029,-0.018,0.001,0.016,103.0,103.0,101.0,13.4,1505.2,324.2,-0.7,1.8,2470.892,13.29,0.018,273.2
2022-01-05T09:46:03,42.805,6.029,-0.024,0.006,-0.006,101.0,102.0,101.0,13.4,1505.2,329.0,-0.7,1.8,2470.883,13.29,0.024,284.0
2022-01-05T09:49:03,42.805,6.029,-0.024,-0.007,-0.015,102.0,103.0,102.0,13.4,1505.2,331.2,-0.7,1.8,2470.905,13.29,0.025,253.7
2022-01-05T09:52:03,42.805,6.029,-0.038,0.025,-0.023,102.0,104.0,102.0,13.4,1505.2,326.2,-0.7,1.8,2470.869,13.29,0.045,303.3
2022-01-05T09:55:03,42.805,6.029,-0.016,-0.006,-0.019,104.0,103.0,101.0,13.4,1505.2,325.3,-0.8,1.8,2470.887,13.29,0.017,249.4